Regional Weather Roundup
Issued by NWS

Home | Current Version | Previous Version | Graphics & Text | Print | Product List | Glossary On
Versions: 1 2 3 4 5 6 7 8 9 10 11 12 13 14 15 16 17 18 19 20 21 22 23 24 25 26 27 28 29 30 31 32 33 34 35 36 37 38 39 40 41 42 43 44 45 46 47 48 49 50
000
ASUS43 KFSD 221002
RWRSD

WEATHER ROUNDUP FOR SOUTH DAKOTA
NATIONAL WEATHER SERVICE SIOUX FALLS SD
400 AM CST THU FEB 22 2018

NOTE: "FAIR" INDICATES FEW OR NO CLOUDS BELOW 12,000 FEET WITH NO
SIGNIFICANT WEATHER AND/OR OBSTRUCTIONS TO VISIBILITY.


SDZ001>005-009-010-012>017-221100-
NORTHWEST AND NORTH CENTRAL SOUTH DAKOTA

CITY           SKY/WX    TMP DP  RH WIND       PRES   REMARKS
BUFFALO          N/A    -15 -21  74 W7        30.07F WCI -31
FAITH            N/A     -6  -7  95 S7        30.20F WCI -20
MOBRIDGE       FAIR      -5 -10  79 MISG      30.26F
$$

SDZ012>016-024>037-041>051-057-063-072>074-221100-
SOUTHWEST AND SOUTH CENTRAL SOUTH DAKOTA

CITY           SKY/WX    TMP DP  RH WIND       PRES   REMARKS
RAPID CTY ARPT FAIR       4  -2  76 E3        30.13F
PIERRE         FAIR       3   0  87 SE10      30.32F WCI -12
CUSTER         FAIR       4   1  88 W6        30.00F WCI  -7
ELLSWORTH AFB  FAIR       1  -3  82 CALM      30.12F
PHILIP         FAIR       0  -3  87 NE5       30.24F WCI -10
PINE RIDGE     FAIR      17   9  70 S17G25    30.15F WCI   1
SPEARFISH        N/A      7   0  72 SW8       30.08F WCI  -6
WINNER         FAIR      16   9  74 S12       30.32F WCI   3
$$

SDZ004>011-016>023-039-040-221100-
NORTHEAST SOUTH DAKOTA

CITY           SKY/WX    TMP DP  RH WIND       PRES   REMARKS
ABERDEEN       FAIR       8   2  76 S7        30.41F WCI  -3
WATERTOWN      FAIR       7   2  80 SE8       30.41F WCI  -6
BROOKINGS      FAIR       5   1  83 SE10      30.45F WCI -10
SISSETON         N/A      1  -5  75 S15       30.46F WCI -18
$$

SDZ017-020-022-023-036>040-048>070-221100-
SOUTHEAST SOUTH DAKOTA

CITY           SKY/WX    TMP DP  RH WIND       PRES   REMARKS
SIOUX FALLS    CLOUDY    14   9  80 E3        30.47F
HURON          MOCLDY     9   3  77 SE13      30.42F WCI  -7
CHAMBERLAIN    FAIR       9   5  86 E8        30.36F WCI  -4
MITCHELL       CLOUDY    12   6  77 SE10      30.45F WCI  -1
YANKTON        FAIR      16  12  84 E5        30.46F WCI   9
$$

ABBREVIATIONS USED IN REMARKS
   TC - TEMPERATURE IN CELSIUS
  WCI - WIND CHILL INDEX
   HX - HEAT INDEX
  VSB - VISIBILITY





USA.gov is the U.S. government's official web portal to all federal, state and local government web resources and services.